Location: *
(37.5724°S, 58.0067°E)
Time: 20:44:42
(UTC+00:00)

ATLAS 5 CENTAUR R/B - Pass Details

Date: 26 September 2020
Orbit: 527 x 1131 km, 63.4° (Epoch: 27 October)

Event Time Altitude Azimuth Distance (km) Brightness Sun altitude
Rises 16:12:55 0° 215° (SW) 3,329 6.2 -24.8°
Reaches altitude 10° 16:15:33 10° 216° (SW) 2,291 5.2 -25.3°
Enters shadow 16:20:40 71° 296° (WNW) 707 1.8 -26.2°
